Change the Weather History Date:

Saturday, December 15, 2012

  Actual Average (KABR) Record (KABR)
Temperature  
Mean Temperature 20 °F 16 °F  
Max Temperature 24 °F 25 °F 60 °F (1939)
Min Temperature 15 °F 6 °F -24 °F (1917)
Degree Days  
Heating Degree Days 46 50  
Month to date heating degree days 707  
Since 1 July heating degree days 2670  
Cooling Degree Days 0 0  
Month to date cooling degree days 0  
Year to date cooling degree days 525  
Moisture  
Dew Point 20 °F    
Average Humidity 96    
Maximum Humidity 100    
Minimum Humidity 80    
Precipitation  
Precipitation 0.00 in 0.01 in 1.30 in (1902)
Month to date precipitation 0.25  
Year to date precipitation 21.45  
Snow  
Snow 0.00 in - - ()
Month to date snowfall  
Since 1 July snowfall  
Snow Depth -    
Sea Level Pressure  
Sea Level Pressure 29.66 in    
Wind  
Wind Speed 10 mph (NNW)    
Max Wind Speed 20 mph    
Max Gust Speed 21 mph    
Visibility 7 miles    
Events Snow    
T = Trace of Precipitation, MM = Missing Value Source: NWS Daily Summary

Daily Weather History Graph

Daily Weather History Graph

Search for Another Location

Airport or City:

Trip Planner

Search our weather history database for the weather conditions in past years. The results will help you decide how hot, cold, wet, or windy it might be!

Date:

Astronomy

Dec. 15, 2012 Rise Set
Actual Time 8:08 AM CST 4:46 PM CST
Civil Twilight 7:33 AM CST 5:21 PM CST
Nautical Twilight 6:55 AM CST 5:59 PM CST
Astronomical Twilight 6:19 AM CST 6:36 PM CST
Moon 9:56 AM CST (12/15) 8:00 PM CST (12/15)
Length of Visible Light 9h 47m
Length of Day
8h 38m
Waxing Crescent, 8% of the Moon is Illuminated
Dec 15
Waxing Crescent
Dec 19
First Quarter
Dec 28
Full
Jan 4
Last Quarter
Jan 11
New

Hourly Weather History & Observations

Time (CST) Temp. Windchill Dew Point Humidity Pressure Visibility Wind Dir Wind Speed Gust Speed Precip Events Conditions
12:15 AM 19.4 °F 10.4 °F 19.4 °F 100% 29.65 in 5.0 mi North 6.9 mph - N/A   Mist
12:35 AM 19.4 °F 8.6 °F 19.4 °F 100% 29.64 in 5.0 mi North 9.2 mph - N/A   Clear
12:55 AM 19.4 °F 12.8 °F 19.4 °F 100% 29.64 in 5.0 mi NNE 4.6 mph - N/A   Clear
1:15 AM 19.4 °F 12.8 °F 19.4 °F 100% 29.65 in 5.0 mi North 4.6 mph - N/A   Clear
1:35 AM 21.2 °F 13.6 °F 21.2 °F 100% 29.64 in 5.0 mi North 5.8 mph - N/A   Clear
1:55 AM 21.2 °F 13.6 °F 21.2 °F 100% 29.64 in 5.0 mi North 5.8 mph - N/A   Mist
2:15 AM 21.2 °F 13.6 °F 21.2 °F 100% 29.65 in 5.0 mi North 5.8 mph - N/A   Mist
2:35 AM 21.2 °F 11.7 °F 21.2 °F 100% 29.65 in 5.0 mi North 8.1 mph - N/A   Mist
2:55 AM 19.4 °F 8.6 °F 19.4 °F 100% 29.64 in 5.0 mi North 9.2 mph - N/A   Mist
3:15 AM 19.4 °F 9.5 °F 19.4 °F 100% 29.64 in 5.0 mi North 8.1 mph - N/A   Mist
3:35 AM 19.4 °F 8.6 °F 19.4 °F 100% 29.63 in 5.0 mi North 9.2 mph - N/A   Mist
3:55 AM 21.2 °F 10.9 °F 21.2 °F 100% 29.63 in 5.0 mi North 9.2 mph - N/A   Clear
4:15 AM 21.2 °F 11.7 °F 21.2 °F 100% 29.63 in 5.0 mi North 8.1 mph - N/A   Clear
4:35 AM 21.2 °F 10.9 °F 21.2 °F 100% 29.63 in 5.0 mi North 9.2 mph - N/A   Clear
4:55 AM 21.2 °F 10.1 °F 21.2 °F 100% 29.63 in 5.0 mi NNW 10.4 mph - N/A   Mist
5:15 AM 21.2 °F 10.1 °F 21.2 °F 100% 29.64 in 5.0 mi North 10.4 mph - N/A   Mist
5:35 AM 21.2 °F 10.1 °F 21.2 °F 100% 29.64 in 5.0 mi North 10.4 mph - N/A   Mist
5:55 AM 21.2 °F 9.5 °F 21.2 °F 100% 29.65 in 5.0 mi North 11.5 mph - N/A   Mist
6:15 AM 21.2 °F 10.9 °F 21.2 °F 100% 29.65 in 5.0 mi North 9.2 mph - N/A   Mist
6:35 AM 23.0 °F 13.1 °F 23.0 °F 100% 29.65 in 5.0 mi North 9.2 mph - N/A   Mist
6:55 AM 23.0 °F 12.4 °F 23.0 °F 100% 29.65 in 5.0 mi North 10.4 mph - N/A   Partly Cloudy
7:15 AM 23.0 °F 12.4 °F 23.0 °F 100% 29.64 in 5.0 mi NNW 10.4 mph - N/A   Mostly Cloudy
7:35 AM 23.0 °F 10.6 °F 23.0 °F 100% 29.63 in 5.0 mi NNW 13.8 mph - N/A   Overcast
7:55 AM 23.0 °F 10.1 °F 23.0 °F 100% 29.63 in 5.0 mi NNW 15.0 mph - N/A   Mist
8:15 AM 23.0 °F 11.7 °F 23.0 °F 100% 29.64 in 3.0 mi North 11.5 mph - N/A   Mist
8:35 AM 23.0 °F 10.6 °F 23.0 °F 100% 29.64 in 3.0 mi North 13.8 mph - N/A   Mist
8:55 AM 23.0 °F 11.7 °F 23.0 °F 100% 29.64 in 3.0 mi North 11.5 mph - N/A   Mist
9:15 AM 23.0 °F 11.1 °F 23.0 °F 100% 29.64 in 3.0 mi NNW 12.7 mph - N/A   Mist
9:35 AM 21.2 °F 8.9 °F 21.2 °F 100% 29.64 in 4.0 mi NNW 12.7 mph - N/A   Mist
9:55 AM 21.2 °F 8.3 °F 21.2 °F 100% 29.64 in 4.0 mi NNW 13.8 mph - N/A   Clear
10:15 AM 19.4 °F 6.6 °F 19.4 °F 100% 29.64 in 4.0 mi NW 12.7 mph - N/A   Clear
10:35 AM 19.4 °F 7.2 °F 19.4 °F 100% 29.66 in 5.0 mi NNW 11.5 mph - N/A   Partly Cloudy
10:55 AM 19.4 °F 6.6 °F 19.4 °F 100% 29.66 in 5.0 mi NW 12.7 mph - N/A   Mist
11:15 AM 21.2 °F 8.9 °F 19.4 °F 93% 29.66 in 5.0 mi NW 12.7 mph - N/A   Mist
11:35 AM 21.2 °F 7.8 °F 19.4 °F 93% 29.66 in 5.0 mi NW 15.0 mph - N/A   Mist
11:55 AM 21.2 °F 7.3 °F 19.4 °F 93% 29.65 in 9.0 mi NNW 16.1 mph - N/A   Unknown
12:15 PM 23.0 °F 9.6 °F 21.2 °F 93% 29.65 in 7.0 mi NW 16.1 mph - N/A   Unknown
12:35 PM 23.0 °F 10.1 °F 21.2 °F 93% 29.65 in 6.0 mi NNW 15.0 mph - N/A   Mist
12:55 PM 23.0 °F 10.1 °F 21.2 °F 93% 29.63 in 7.0 mi NNW 15.0 mph - N/A   Overcast
1:15 PM 23.0 °F 10.1 °F 23.0 °F 100% 29.63 in 7.0 mi NNW 15.0 mph - N/A   Scattered Clouds
1:35 PM 23.0 °F 10.1 °F 21.2 °F 93% 29.63 in 9.0 mi NNW 15.0 mph - N/A   Clear
1:55 PM 23.0 °F 11.7 °F 21.2 °F 93% 29.62 in 10.0 mi NW 11.5 mph - N/A   Unknown
2:15 PM 23.0 °F 10.1 °F 19.4 °F 86% 29.63 in 10.0 mi NW 15.0 mph - N/A   Unknown
2:35 PM 23.0 °F 9.6 °F 19.4 °F 86% 29.63 in 10.0 mi NW 16.1 mph - N/A   Unknown
2:55 PM 23.0 °F 11.1 °F 19.4 °F 86% 29.63 in 10.0 mi NNW 12.7 mph - N/A   Unknown
3:15 PM 23.0 °F 10.1 °F 19.4 °F 86% 29.63 in 10.0 mi NW 15.0 mph - N/A   Unknown
3:35 PM 23.0 °F 9.6 °F 19.4 °F 86% 29.64 in 10.0 mi NNW 16.1 mph 19.6 mph N/A   Unknown
3:55 PM 24.8 °F 11.9 °F 19.4 °F 80% 29.64 in 10.0 mi NNW 16.1 mph - N/A   Unknown
4:15 PM 24.8 °F 11.9 °F 19.4 °F 80% 29.65 in 10.0 mi NW 16.1 mph 20.7 mph N/A   Unknown
4:35 PM 23.0 °F 9.6 °F 19.4 °F 86% 29.66 in 10.0 mi NW 16.1 mph - N/A   Clear
4:55 PM 23.0 °F 11.1 °F 19.4 °F 86% 29.67 in 10.0 mi NNW 12.7 mph - N/A   Clear
5:15 PM 23.0 °F 10.6 °F 19.4 °F 86% 29.67 in 10.0 mi NW 13.8 mph - N/A   Unknown
5:35 PM 21.2 °F 8.9 °F 19.4 °F 93% 29.67 in 10.0 mi NNW 12.7 mph - N/A   Unknown
5:55 PM 19.4 °F 6.6 °F 17.6 °F 93% 29.68 in 10.0 mi NNW 12.7 mph - N/A   Unknown
6:15 PM 19.4 °F 7.9 °F 17.6 °F 93% 29.69 in 10.0 mi NNW 10.4 mph - N/A   Unknown
6:35 PM 19.4 °F 7.2 °F 17.6 °F 93% 29.70 in 10.0 mi NNW 11.5 mph - N/A   Unknown
6:55 PM 17.6 °F 5.0 °F 17.6 °F 100% 29.71 in 10.0 mi NNW 11.5 mph - N/A   Unknown
7:15 PM 17.6 °F 3.7 °F 17.6 °F 100% 29.72 in 10.0 mi NW 13.8 mph - N/A   Clear
7:35 PM 17.6 °F 5.7 °F 15.8 °F 93% 29.72 in 10.0 mi NW 10.4 mph - N/A   Clear
7:55 PM 17.6 °F 4.3 °F 15.8 °F 93% 29.72 in 10.0 mi NNW 12.7 mph - N/A   Unknown
8:15 PM 17.6 °F 5.7 °F 15.8 °F 93% 29.72 in 10.0 mi NW 10.4 mph - N/A   Unknown
8:35 PM 15.8 °F 4.2 °F 15.8 °F 100% 29.73 in 10.0 mi NW 9.2 mph - N/A   Unknown
8:55 PM 15.8 °F 0.9 °F 15.8 °F 100% 29.73 in 10.0 mi NW 15.0 mph - N/A   Unknown
9:15 PM 17.6 °F 4.3 °F 17.6 °F 100% 29.74 in 10.0 mi NW 12.7 mph 18.4 mph N/A   Unknown
9:35 PM 19.4 °F 6.6 °F 19.4 °F 100% 29.74 in 10.0 mi NW 12.7 mph - N/A   Overcast
9:55 PM 19.4 °F 5.5 °F 19.4 °F 100% 29.74 in 10.0 mi NNW 15.0 mph 18.4 mph N/A   Overcast
10:15 PM 21.2 °F 6.4 °F 21.2 °F 100% 29.73 in 10.0 mi NNW 18.4 mph - N/A   Unknown
10:35 PM 21.2 °F 8.3 °F 21.2 °F 100% 29.74 in 10.0 mi NNW 13.8 mph - N/A   Unknown
10:55 PM 21.2 °F 6.8 °F 21.2 °F 100% 29.74 in 10.0 mi NNW 17.3 mph - N/A   Unknown
11:15 PM 21.2 °F 9.5 °F 21.2 °F 100% 29.75 in 10.0 mi NNW 11.5 mph - N/A   Unknown
11:35 PM 23.0 °F 10.1 °F 23.0 °F 100% 29.75 in 10.0 mi NNW 15.0 mph 19.6 mph N/A Snow Light Snow
11:55 PM 23.0 °F 8.3 °F 23.0 °F 100% 29.75 in 10.0 mi NNW 19.6 mph - N/A   Unknown